Location: Unspecified
(0.0000°N, 0.0000°E)
Time: 00:17:20
(UTC+02:00)

Transit 2A - Visible Passes

Search period start: 26 September 2017 00:00
Search period end: 06 October 2017 00:00
Orbit: 593 x 966 km, 66.7° (Epoch: 24 September)

Date Brightness Start Highest point End Pass type
(mag) Time Alt. Az. Time Alt. Az. Time Alt. Az.
26 Sep 6.7 21:04:51 10° N 21:10:43 41° ENE 21:12:08 36° ESE visible
26 Sep 8.8 22:49:49 10° WNW 22:52:47 17° W 22:52:47 17° W visible
27 Sep 7.3 20:31:34 10° NNE 20:36:40 26° ENE 20:41:31 10° ESE visible
27 Sep 8.1 22:14:31 10° NW 22:19:40 27° WSW 22:22:13 20° SW visible
28 Sep 7.4 21:39:50 10° NW 21:45:43 44° WSW 21:51:14 10° S visible
29 Sep 6.6 21:05:31 10° NNW 21:11:44 71° WSW 21:17:33 10° SSE visible
30 Sep 6.3 20:31:30 10° NNW 20:37:46 74° ENE 20:43:34 10° SSE visible
01 Oct 9.1 21:43:22 10° WNW 21:46:37 15° WSW 21:49:47 10° SW visible
02 Oct 8.6 21:07:49 10° WNW 21:12:40 24° WSW 21:17:16 10° SSW visible
03 Oct 7.9 20:33:00 10° NW 20:38:43 39° WSW 20:44:03 10° S visible
05 Oct 8.4 06:51:49 10° SSE 06:55:13 21° ESE 06:58:47 10° ENE visible
